This is the latest recevied weather packets stored in our database for station/object KJ4YLO. If no packets are shown the sender has not sent any weather packets the latest 10 day(s).
| Time | Temp. | Humidity | Pressure | Rain* | Wind** | Luminosity | Snow |
|---|---|---|---|---|---|---|---|
| 1778005720 | 25.56° C | 36% | 1016.9 hPa | 0 mm | - | 604 W/m² | - |
| 1778005417 | 25° C | 36% | 1017.3 hPa | 0 mm | - | 715 W/m² | - |
| 1778005114 | 24.44° C | 35% | 1016.9 hPa | 0 mm | - | 611 W/m² | - |
| 1778004811 | 24.44° C | 36% | 1017.3 hPa | 0 mm | - | 432 W/m² | - |
| 1778004508 | 23.89° C | 33% | 1017.3 hPa | 0 mm | - | 532 W/m² | - |
| 1778004204 | 24.44° C | 34% | 1017.3 hPa | 0 mm | - | 750 W/m² | - |
| 1778003901 | 24.44° C | 35% | 1017.3 hPa | 0 mm | - | 661 W/m² | - |
| 1778003597 | 25° C | 34% | 1017.3 hPa | 0 mm | - | 605 W/m² | - |
| 1778003294 | 25° C | 36% | 1017.3 hPa | 0 mm | - | 731 W/m² | - |
| 1778002991 | 24.44° C | 35% | 1017.6 hPa | 0 mm | - | 387 W/m² | - |
| 1778002687 | 24.44° C | 35% | 1018 hPa | 0 mm | - | 507 W/m² | - |
| 1778002383 | 24.44° C | 35% | 1017.6 hPa | 0 mm | - | 517 W/m² | - |
| 1778002080 | 24.44° C | 36% | 1018 hPa | 0 mm | - | 649 W/m² | - |
| 1778001778 | 25° C | 33% | 1018 hPa | 0 mm | - | 537 W/m² | - |
| 1778001473 | 24.44° C | 34% | 1018 hPa | 0 mm | - | 724 W/m² | - |
| 1778001169 | 24.44° C | 37% | 1018.3 hPa | 0 mm | - | 774 W/m² | - |
| 1778000866 | 24.44° C | 35% | 1018 hPa | 0 mm | - | 797 W/m² | - |
| 1778000564 | 24.44° C | 33% | 1018 hPa | 0 mm | - | 822 W/m² | - |
| 1777999955 | 25° C | 35% | 1018 hPa | 0 mm | - | 745 W/m² | - |
| 1777999650 | 23.89° C | 37% | 1018 hPa | 0 mm | - | 669 W/m² | - |
| 1777999348 | 23.89° C | 37% | 1018 hPa | 0 mm | - | 675 W/m² | - |
| 1777999046 | 23.33° C | 37% | 1018 hPa | 0 mm | - | 722 W/m² | - |
| 1777998744 | 23.33° C | 39% | 1017.6 hPa | 0 mm | - | 786 W/m² | - |
| 1777998441 | 23.89° C | 39% | 1017.6 hPa | 0 mm | - | 775 W/m² | - |
| 1777998138 | 22.78° C | 42% | 1018 hPa | 0 mm | - | 758 W/m² | - |
* Rain latest hour (hover to see other rain measurements)
** Current wind speed in m/s (hover to see current wind gust speed)